Time,TemperatureF,DewpointF,PressureIn,WindDirection,WindDirectionDegrees,WindSpeedMPH,WindSpeedGustMPH,Humidity,HourlyPrecipIn,Conditions,Clouds,dailyrainin,SoftwareType,DateUTC
2013-05-09 00:05:00,61.5,56.3,29.86,NE,41,10.0,10.0,83,0.00,,,0.00,Wunderground v.1.15,2013-05-09 05:05:00,
2013-05-09 00:15:00,61.6,56.4,29.84,NNE,24,9.0,11.0,83,0.00,,,0.00,Wunderground v.1.15,2013-05-09 05:15:00,
2013-05-09 00:20:00,61.6,56.0,29.85,NNE,31,7.0,8.0,82,0.00,,,0.00,Wunderground v.1.15,2013-05-09 05:20:00,
2013-05-09 00:30:00,61.3,55.4,29.85,NNE,32,6.0,6.0,81,0.00,,,0.00,Wunderground v.1.15,2013-05-09 05:30:00,
2013-05-09 00:35:00,61.2,55.0,29.85,NE,49,6.0,6.0,80,0.00,,,0.00,Wunderground v.1.15,2013-05-09 05:35:00,
2013-05-09 00:45:00,61.1,54.9,29.85,NE,50,1.0,3.0,80,0.00,,,0.00,Wunderground v.1.15,2013-05-09 05:45:00,
2013-05-09 00:50:00,61.1,55.2,29.84,NE,51,1.0,2.0,81,0.00,,,0.00,Wunderground v.1.15,2013-05-09 05:50:00,
2013-05-09 01:00:00,61.1,55.2,29.84,NNE,19,4.0,8.0,81,0.00,,,0.00,Wunderground v.1.15,2013-05-09 06:00:00,
2013-05-09 01:05:00,61.1,55.2,29.84,NNE,25,6.0,8.0,81,0.00,,,0.00,Wunderground v.1.15,2013-05-09 06:05:00,
2013-05-09 01:15:00,61.1,55.6,29.84,NE,38,5.0,5.0,82,0.00,,,0.00,Wunderground v.1.15,2013-05-09 06:15:00,
2013-05-09 01:25:00,61.1,55.6,29.84,ENE,62,5.0,10.0,82,0.00,,,0.00,Wunderground v.1.15,2013-05-09 06:25:00,
2013-05-09 01:30:00,61.0,55.8,29.84,ENE,62,4.0,4.0,83,0.00,,,0.00,Wunderground v.1.15,2013-05-09 06:30:00,
2013-05-09 01:40:00,60.9,55.7,29.85,NNW,329,4.0,7.0,83,0.00,,,0.00,Wunderground v.1.15,2013-05-09 06:40:00,
2013-05-09 01:45:00,60.8,55.9,29.85,NNW,338,5.0,7.0,84,0.00,,,0.00,Wunderground v.1.15,2013-05-09 06:45:00,
2013-05-09 01:55:00,60.7,56.2,29.85,North,5,5.0,9.0,85,0.00,,,0.01,Wunderground v.1.15,2013-05-09 06:55:00,
2013-05-09 02:00:00,60.6,56.1,29.85,NNE,19,7.0,9.0,85,0.22,,,0.03,Wunderground v.1.15,2013-05-09 07:00:00,
2013-05-09 02:05:00,60.4,56.2,29.85,NNE,33,8.0,9.0,86,0.52,,,0.08,Wunderground v.1.15,2013-05-09 07:05:00,
2013-05-09 02:15:00,60.0,56.1,29.85,NNE,33,5.0,7.0,87,0.12,,,0.12,Wunderground v.1.15,2013-05-09 07:15:00,
2013-05-09 02:20:00,59.7,55.8,29.84,NE,39,4.0,5.0,87,3.15,,,0.18,Wunderground v.1.15,2013-05-09 07:20:00,
2013-05-09 02:25:00,59.4,55.5,29.84,NE,38,4.0,6.0,87,0.27,,,0.23,Wunderground v.1.15,2013-05-09 07:25:00,
2013-05-09 02:35:00,59.0,55.4,29.83,NNE,22,5.0,5.0,88,0.07,,,0.24,Wunderground v.1.15,2013-05-09 07:35:00,
2013-05-09 02:40:00,59.0,55.4,29.83,ENE,65,4.0,4.0,88,0.04,,,0.24,Wunderground v.1.15,2013-05-09 07:40:00,
2013-05-09 02:50:00,58.7,55.5,29.83,NNE,30,5.0,5.0,89,0.18,,,0.28,Wunderground v.1.15,2013-05-09 07:50:00,
2013-05-09 03:00:00,58.5,55.3,29.84,ENE,74,4.0,5.0,89,0.05,,,0.28,Wunderground v.1.15,2013-05-09 08:00:00,
2013-05-09 03:05:00,58.4,55.2,29.83,NE,42,4.0,5.0,89,0.00,,,0.29,Wunderground v.1.15,2013-05-09 08:05:00,
2013-05-09 03:15:00,58.0,55.1,29.84,ENE,59,4.0,4.0,90,0.09,,,0.32,Wunderground v.1.15,2013-05-09 08:15:00,
2013-05-09 03:20:00,57.9,55.0,29.85,ENE,66,3.0,3.0,90,0.05,,,0.32,Wunderground v.1.15,2013-05-09 08:20:00,
2013-05-09 03:30:00,57.8,54.9,29.85,ESE,114,1.0,1.0,90,0.11,,,0.34,Wunderground v.1.15,2013-05-09 08:30:00,
2013-05-09 03:40:00,57.5,54.9,29.85,SE,138,4.0,4.0,91,0.30,,,0.41,Wunderground v.1.15,2013-05-09 08:40:00,
2013-05-09 03:45:00,57.4,54.8,29.85,SE,138,3.0,4.0,91,0.15,,,0.43,Wunderground v.1.15,2013-05-09 08:45:00,
2013-05-09 03:55:00,57.3,54.7,29.85,SE,146,4.0,6.0,91,0.19,,,0.46,Wunderground v.1.15,2013-05-09 08:55:00,
2013-05-09 04:00:00,57.3,54.7,29.84,SSE,150,3.0,4.0,91,0.27,,,0.48,Wunderground v.1.15,2013-05-09 09:00:00,
2013-05-09 04:05:00,57.2,54.6,29.84,SSE,150,4.0,4.0,91,0.29,,,0.50,Wunderground v.1.15,2013-05-09 09:05:00,
2013-05-09 04:15:00,57.0,54.7,29.84,SSE,150,2.0,3.0,92,0.36,,,0.54,Wunderground v.1.15,2013-05-09 09:15:00,
2013-05-09 04:20:00,56.9,54.6,29.83,SSE,150,2.0,2.0,92,0.27,,,0.55,Wunderground v.1.15,2013-05-09 09:20:00,
2013-05-09 04:25:00,56.8,54.5,29.83,SSE,150,1.0,2.0,92,0.12,,,0.56,Wunderground v.1.15,2013-05-09 09:25:00,
2013-05-09 04:35:00,56.7,54.4,29.83,SSE,150,1.0,1.0,92,0.09,,,0.58,Wunderground v.1.15,2013-05-09 09:35:00,
2013-05-09 04:40:00,56.7,54.4,29.83,SSE,150,0.0,0.0,92,0.05,,,0.58,Wunderground v.1.15,2013-05-09 09:40:00,
2013-05-09 04:50:00,56.5,54.2,29.83,SSE,150,0.0,2.0,92,0.00,,,0.58,Wunderground v.1.15,2013-05-09 09:50:00,
2013-05-09 05:00:00,56.4,54.1,29.83,SSE,150,1.0,1.0,92,0.00,,,0.58,Wunderground v.1.15,2013-05-09 10:00:00,
2013-05-09 05:05:00,56.4,54.1,29.83,SSE,150,1.0,2.0,92,0.00,,,0.58,Wunderground v.1.15,2013-05-09 10:05:00,
2013-05-09 05:15:00,56.4,54.1,29.82,NE,56,2.0,3.0,92,0.00,,,0.58,Wunderground v.1.15,2013-05-09 10:15:00,
2013-05-09 05:20:00,56.4,54.1,29.82,NNE,33,3.0,3.0,92,0.00,,,0.58,Wunderground v.1.15,2013-05-09 10:20:00,
2013-05-09 05:30:00,56.5,54.5,29.82,NE,35,4.0,4.0,93,0.00,,,0.59,Wunderground v.1.15,2013-05-09 10:30:00,
2013-05-09 05:40:00,56.5,54.5,29.82,NNE,31,3.0,3.0,93,0.00,,,0.59,Wunderground v.1.15,2013-05-09 10:40:00,
2013-05-09 05:45:00,56.5,54.5,29.82,NNE,14,4.0,7.0,93,0.00,,,0.59,Wunderground v.1.15,2013-05-09 10:45:00,
2013-05-09 05:55:00,56.5,54.5,29.83,NNE,28,5.0,8.0,93,0.00,,,0.59,Wunderground v.1.15,2013-05-09 10:55:00,
2013-05-09 06:00:00,56.4,54.4,29.83,NNE,12,4.0,4.0,93,0.00,,,0.59,Wunderground v.1.15,2013-05-09 11:00:00,
2013-05-09 06:05:00,56.4,54.4,29.83,NNW,335,4.0,4.0,93,0.00,,,0.59,Wunderground v.1.15,2013-05-09 11:05:00,
2013-05-09 06:15:00,56.3,54.3,29.83,NNW,344,3.0,5.0,93,0.00,,,0.59,Wunderground v.1.15,2013-05-09 11:15:00,
2013-05-09 06:20:00,56.3,54.3,29.83,North,355,3.0,3.0,93,0.00,,,0.59,Wunderground v.1.15,2013-05-09 11:20:00,
2013-05-09 06:25:00,56.2,54.2,29.83,North,360,3.0,3.0,93,0.00,,,0.59,Wunderground v.1.15,2013-05-09 11:25:00,
2013-05-09 06:35:00,56.2,54.2,29.84,North,5,4.0,8.0,93,0.00,,,0.59,Wunderground v.1.15,2013-05-09 11:35:00,
2013-05-09 06:40:00,56.2,54.2,29.83,NNE,22,5.0,7.0,93,0.00,,,0.60,Wunderground v.1.15,2013-05-09 11:40:00,
2013-05-09 06:50:00,56.3,54.3,29.83,NNE,31,7.0,7.0,93,0.00,,,0.60,Wunderground v.1.15,2013-05-09 11:50:00,
2013-05-09 07:00:00,56.2,54.2,29.84,NNE,16,6.0,6.0,93,0.00,,,0.61,Wunderground v.1.15,2013-05-09 12:00:00,
2013-05-09 07:05:00,56.2,54.2,29.84,NNE,32,6.0,7.0,93,0.00,,,0.61,Wunderground v.1.15,2013-05-09 12:05:00,
2013-05-09 07:15:00,56.0,54.0,29.84,NNE,32,9.0,13.0,93,0.00,,,0.61,Wunderground v.1.15,2013-05-09 12:15:00,
2013-05-09 07:25:00,55.9,53.9,29.84,NE,40,6.0,8.0,93,0.00,,,0.61,Wunderground v.1.15,2013-05-09 12:25:00,
2013-05-09 07:30:00,55.9,53.9,29.85,NNW,342,5.0,9.0,93,0.00,,,0.61,Wunderground v.1.15,2013-05-09 12:30:00,
2013-05-09 07:40:00,55.8,53.8,29.83,North,5,7.0,10.0,93,0.00,,,0.61,Wunderground v.1.15,2013-05-09 12:40:00,
2013-05-09 07:45:00,55.9,53.9,29.84,NE,38,7.0,10.0,93,0.00,,,0.61,Wunderground v.1.15,2013-05-09 12:45:00,
2013-05-09 07:55:00,56.0,54.3,29.84,NNE,33,7.0,7.0,94,0.00,,,0.61,Wunderground v.1.15,2013-05-09 12:55:00,
2013-05-09 08:05:00,56.1,54.4,29.84,NNE,22,5.0,6.0,94,0.00,,,0.61,Wunderground v.1.15,2013-05-09 13:05:00,
2013-05-09 08:20:00,56.4,54.7,29.85,NNE,21,4.0,6.0,94,0.00,,,0.61,Wunderground v.1.15,2013-05-09 13:20:00,
2013-05-09 08:30:00,56.6,54.9,29.86,North,349,5.0,5.0,94,0.00,,,0.61,Wunderground v.1.15,2013-05-09 13:30:00,
2013-05-09 08:40:00,56.6,54.9,29.86,North,355,5.0,7.0,94,0.00,,,0.61,Wunderground v.1.15,2013-05-09 13:40:00,
2013-05-09 08:45:00,56.6,54.9,29.87,NNE,17,4.0,8.0,94,0.00,,,0.61,Wunderground v.1.15,2013-05-09 13:45:00,
2013-05-09 08:55:00,56.5,54.8,29.87,NNE,21,5.0,5.0,94,0.00,,,0.61,Wunderground v.1.15,2013-05-09 13:55:00,
2013-05-09 09:00:00,56.5,54.8,29.87,NNE,24,4.0,4.0,94,0.00,,,0.61,Wunderground v.1.15,2013-05-09 14:00:00,
2013-05-09 09:05:00,56.4,54.7,29.87,North,355,4.0,4.0,94,0.00,,,0.61,Wunderground v.1.15,2013-05-09 14:05:00,
2013-05-09 09:15:00,56.4,54.7,29.88,North,5,5.0,6.0,94,0.00,,,0.61,Wunderground v.1.15,2013-05-09 14:15:00,
2013-05-09 09:20:00,56.4,54.7,29.88,North,5,4.0,4.0,94,0.00,,,0.61,Wunderground v.1.15,2013-05-09 14:20:00,
2013-05-09 09:25:00,56.4,54.7,29.88,North,11,4.0,4.0,94,0.00,,,0.61,Wunderground v.1.15,2013-05-09 14:25:00,
2013-05-09 09:30:00,56.4,54.7,29.88,NNE,13,3.0,8.0,94,0.00,,,0.61,Wunderground v.1.15,2013-05-09 14:30:00,
2013-05-09 09:40:00,56.6,54.9,29.88,North,360,4.0,6.0,94,0.00,,,0.61,Wunderground v.1.15,2013-05-09 14:40:00,
2013-05-09 09:50:00,57.1,55.7,29.88,NE,35,4.0,6.0,95,0.00,,,0.61,Wunderground v.1.15,2013-05-09 14:50:00,
2013-05-09 10:00:00,57.6,56.2,29.88,North,360,4.0,5.0,95,0.00,,,0.61,Wunderground v.1.15,2013-05-09 15:00:00,
2013-05-09 10:05:00,58.0,56.6,29.88,NNE,15,5.0,7.0,95,0.00,,,0.61,Wunderground v.1.15,2013-05-09 15:05:00,
2013-05-09 10:15:00,58.1,56.4,29.88,NNE,32,5.0,5.0,94,0.00,,,0.61,Wunderground v.1.15,2013-05-09 15:15:00,
2013-05-09 10:20:00,58.1,56.4,29.88,NE,46,5.0,5.0,94,0.00,,,0.61,Wunderground v.1.15,2013-05-09 15:20:00,
2013-05-09 10:30:00,58.1,56.4,29.89,NNE,17,3.0,4.0,94,0.00,,,0.61,Wunderground v.1.15,2013-05-09 15:30:00,
2013-05-09 10:40:00,58.1,56.4,29.89,NNE,27,4.0,4.0,94,0.00,,,0.61,Wunderground v.1.15,2013-05-09 15:40:00,
2013-05-09 10:45:00,58.2,56.5,29.89,NNE,19,4.0,5.0,94,0.00,,,0.61,Wunderground v.1.15,2013-05-09 15:45:00,
2013-05-09 10:55:00,58.3,56.6,29.89,North,11,4.0,4.0,94,0.00,,,0.61,Wunderground v.1.15,2013-05-09 15:55:00,
2013-05-09 11:00:00,58.3,56.6,29.89,NNE,17,3.0,3.0,94,0.00,,,0.61,Wunderground v.1.15,2013-05-09 16:00:00,
2013-05-09 11:05:00,58.4,56.7,29.89,NNE,18,3.0,3.0,94,0.00,,,0.61,Wunderground v.1.15,2013-05-09 16:05:00,
2013-05-09 11:15:00,58.4,56.7,29.90,NNE,12,3.0,3.0,94,0.00,,,0.61,Wunderground v.1.15,2013-05-09 16:15:00,
2013-05-09 11:20:00,58.4,56.7,29.90,North,360,3.0,3.0,94,0.00,,,0.61,Wunderground v.1.15,2013-05-09 16:20:00,
2013-05-09 11:25:00,58.5,56.8,29.90,NNW,332,3.0,4.0,94,0.00,,,0.61,Wunderground v.1.15,2013-05-09 16:25:00,
2013-05-09 11:35:00,58.9,57.2,29.90,North,360,2.0,6.0,94,0.00,,,0.61,Wunderground v.1.15,2013-05-09 16:35:00,
2013-05-09 11:40:00,58.8,56.8,29.90,North,5,3.0,5.0,93,0.00,,,0.61,Wunderground v.1.15,2013-05-09 16:40:00,
2013-05-09 11:50:00,59.0,57.0,29.90,NNW,327,3.0,3.0,93,0.00,,,0.61,Wunderground v.1.15,2013-05-09 16:50:00,
2013-05-09 12:00:00,59.4,57.4,29.90,NW,305,3.0,4.0,93,0.00,,,0.61,Wunderground v.1.15,2013-05-09 17:00:00,
2013-05-09 12:05:00,59.5,57.5,29.90,NW,326,3.0,4.0,93,0.00,,,0.61,Wunderground v.1.15,2013-05-09 17:05:00,
2013-05-09 12:15:00,60.0,58.0,29.90,NW,316,5.0,7.0,93,0.00,,,0.61,Wunderground v.1.15,2013-05-09 17:15:00,
2013-05-09 12:20:00,60.4,58.4,29.90,WNW,300,5.0,5.0,93,0.00,,,0.61,Wunderground v.1.15,2013-05-09 17:20:00,
2013-05-09 12:30:00,61.2,59.2,29.90,NNW,338,4.0,4.0,93,0.00,,,0.61,Wunderground v.1.15,2013-05-09 17:30:00,
2013-05-09 12:35:00,61.6,59.6,29.90,NW,316,4.0,7.0,93,0.00,,,0.61,Wunderground v.1.15,2013-05-09 17:35:00,
2013-05-09 12:45:00,61.1,59.1,29.90,WNW,301,5.0,5.0,93,0.00,,,0.61,Wunderground v.1.15,2013-05-09 17:45:00,
2013-05-09 12:50:00,61.0,58.7,29.90,NW,312,5.0,5.0,92,0.00,,,0.61,Wunderground v.1.15,2013-05-09 17:50:00,
2013-05-09 13:00:00,60.8,58.5,29.90,WNW,297,5.0,5.0,92,0.00,,,0.61,Wunderground v.1.15,2013-05-09 18:00:00,
2013-05-09 13:05:00,61.1,58.8,29.90,NW,321,4.0,5.0,92,0.00,,,0.61,Wunderground v.1.15,2013-05-09 18:05:00,
2013-05-09 13:15:00,61.9,58.9,29.90,WNW,296,6.0,10.0,90,0.00,,,0.61,Wunderground v.1.15,2013-05-09 18:15:00,
2013-05-09 13:25:00,63.2,59.9,29.90,NW,311,8.0,9.0,89,0.00,,,0.61,Wunderground v.1.15,2013-05-09 18:25:00,
2013-05-09 13:30:00,64.1,60.2,29.89,WNW,289,7.0,7.0,87,0.00,,,0.61,Wunderground v.1.15,2013-05-09 18:30:00,
2013-05-09 13:40:00,64.8,60.8,29.89,NNW,329,6.0,12.0,87,0.00,,,0.61,Wunderground v.1.15,2013-05-09 18:40:00,
2013-05-09 13:50:00,65.1,59.8,29.89,NW,319,7.0,7.0,83,0.00,,,0.61,Wunderground v.1.15,2013-05-09 18:50:00,
2013-05-09 14:00:00,65.6,60.0,29.89,NNW,340,7.0,7.0,82,0.00,,,0.61,Wunderground v.1.15,2013-05-09 19:00:00,
2013-05-09 14:05:00,66.1,60.8,29.89,West,278,6.0,7.0,83,0.00,,,0.61,Wunderground v.1.15,2013-05-09 19:05:00,
2013-05-09 14:15:00,64.9,58.2,29.89,WNW,290,8.0,8.0,79,0.00,,,0.61,Wunderground v.1.15,2013-05-09 19:15:00,
2013-05-09 14:20:00,64.3,58.0,29.88,WNW,298,7.0,7.0,80,0.00,,,0.61,Wunderground v.1.15,2013-05-09 19:20:00,
2013-05-09 14:30:00,65.9,59.9,29.88,NW,316,7.0,7.0,81,0.00,,,0.62,Wunderground v.1.15,2013-05-09 19:30:00,
2013-05-09 14:40:00,66.0,58.9,29.88,NNW,335,6.0,6.0,78,0.00,,,0.62,Wunderground v.1.15,2013-05-09 19:40:00,
2013-05-09 14:45:00,65.7,59.4,29.88,NW,319,6.0,7.0,80,0.00,,,0.62,Wunderground v.1.15,2013-05-09 19:45:00,
2013-05-09 14:55:00,66.5,59.8,29.88,WNW,302,7.0,8.0,79,0.00,,,0.62,Wunderground v.1.15,2013-05-09 19:55:00,
2013-05-09 15:00:00,66.3,58.9,29.88,WNW,290,6.0,6.0,77,0.00,,,0.62,Wunderground v.1.15,2013-05-09 20:00:00,
2013-05-09 15:05:00,66.3,59.6,29.88,NW,315,5.0,6.0,79,0.00,,,0.62,Wunderground v.1.15,2013-05-09 20:05:00,
2013-05-09 15:15:00,67.2,59.4,29.88,North,11,5.0,7.0,76,0.00,,,0.62,Wunderground v.1.15,2013-05-09 20:15:00,
2013-05-09 15:20:00,66.9,58.3,29.88,NW,310,5.0,8.0,74,0.00,,,0.62,Wunderground v.1.15,2013-05-09 20:20:00,
2013-05-09 15:25:00,66.6,58.4,29.88,WNW,285,5.0,8.0,75,0.00,,,0.62,Wunderground v.1.15,2013-05-09 20:25:00,
2013-05-09 15:35:00,66.9,58.7,29.88,NW,311,6.0,7.0,75,0.00,,,0.62,Wunderground v.1.15,2013-05-09 20:35:00,
2013-05-09 15:40:00,67.3,58.7,29.88,WNW,282,5.0,5.0,74,0.00,,,0.62,Wunderground v.1.15,2013-05-09 20:40:00,
2013-05-09 15:50:00,67.7,58.7,29.86,NNW,336,6.0,6.0,73,0.00,,,0.62,Wunderground v.1.15,2013-05-09 20:50:00,
2013-05-09 15:55:00,68.0,59.4,29.86,NW,310,6.0,6.0,74,0.00,,,0.62,Wunderground v.1.15,2013-05-09 20:55:00,
2013-05-09 16:05:00,68.4,59.0,29.86,NW,309,4.0,6.0,72,0.00,,,0.62,Wunderground v.1.15,2013-05-09 21:05:00,
2013-05-09 16:15:00,68.0,58.6,29.86,NW,308,5.0,7.0,72,0.00,,,0.62,Wunderground v.1.15,2013-05-09 21:15:00,
2013-05-09 16:20:00,68.6,58.4,29.86,WNW,290,5.0,7.0,70,0.00,,,0.62,Wunderground v.1.15,2013-05-09 21:20:00,
2013-05-09 16:30:00,68.4,58.2,29.86,NNW,329,7.0,9.0,70,0.00,,,0.62,Wunderground v.1.15,2013-05-09 21:30:00,
2013-05-09 16:35:00,68.3,58.1,29.86,WNW,294,6.0,9.0,70,0.00,,,0.62,Wunderground v.1.15,2013-05-09 21:35:00,
2013-05-09 16:45:00,67.8,56.9,29.86,NW,305,6.0,10.0,68,0.00,,,0.62,Wunderground v.1.15,2013-05-09 21:45:00,
2013-05-09 16:50:00,67.8,56.9,29.86,West,281,7.0,11.0,68,0.00,,,0.62,Wunderground v.1.15,2013-05-09 21:50:00,
2013-05-09 17:00:00,67.8,57.3,29.86,WNW,285,7.0,7.0,69,0.00,,,0.62,Wunderground v.1.15,2013-05-09 22:00:00,
2013-05-09 17:05:00,67.6,57.5,29.86,NW,305,7.0,7.0,70,0.00,,,0.62,Wunderground v.1.15,2013-05-09 22:05:00,
2013-05-09 17:15:00,67.0,57.3,29.86,WNW,285,9.0,12.0,71,0.00,,,0.62,Wunderground v.1.15,2013-05-09 22:15:00,
2013-05-09 17:25:00,66.8,57.5,29.87,NNW,328,11.0,14.0,72,0.00,,,0.62,Wunderground v.1.15,2013-05-09 22:25:00,
2013-05-09 17:30:00,66.5,57.2,29.87,NNW,347,9.0,9.0,72,0.00,,,0.62,Wunderground v.1.15,2013-05-09 22:30:00,
2013-05-09 17:40:00,65.1,56.6,29.88,North,355,12.0,12.0,74,0.00,,,0.62,Wunderground v.1.15,2013-05-09 22:40:00,
2013-05-09 17:50:00,63.7,56.4,29.88,North,5,11.0,11.0,77,0.00,,,0.62,Wunderground v.1.15,2013-05-09 22:50:00,
2013-05-09 18:00:00,63.3,56.7,29.88,NE,44,10.0,10.0,79,0.00,,,0.62,Wunderground v.1.15,2013-05-09 23:00:00,
2013-05-09 18:05:00,63.2,56.6,29.89,North,351,8.0,11.0,79,0.00,,,0.62,Wunderground v.1.15,2013-05-09 23:05:00,
2013-05-09 18:15:00,62.6,56.0,29.89,NNW,327,9.0,10.0,79,0.00,,,0.62,Wunderground v.1.15,2013-05-09 23:15:00,
2013-05-09 18:25:00,62.2,56.0,29.89,NNE,17,9.0,11.0,80,0.00,,,0.62,Wunderground v.1.15,2013-05-09 23:25:00,
2013-05-09 18:35:00,62.0,56.1,29.89,NNE,29,8.0,8.0,81,0.00,,,0.62,Wunderground v.1.15,2013-05-09 23:35:00,
2013-05-09 18:40:00,61.8,56.2,29.90,NNE,27,9.0,9.0,82,0.00,,,0.62,Wunderground v.1.15,2013-05-09 23:40:00,
2013-05-09 18:50:00,61.5,56.3,29.90,NNW,336,8.0,8.0,83,0.00,,,0.62,Wunderground v.1.15,2013-05-09 23:50:00,
2013-05-09 18:55:00,61.5,56.3,29.90,NE,39,6.0,8.0,83,0.00,,,0.62,Wunderground v.1.15,2013-05-09 23:55:00,
2013-05-09 19:05:00,61.3,56.4,29.90,NNW,348,7.0,9.0,84,0.00,,,0.62,Wunderground v.1.15,2013-05-10 00:05:00,
2013-05-09 19:15:00,61.2,56.3,29.90,NNE,24,6.0,13.0,84,0.00,,,0.62,Wunderground v.1.15,2013-05-10 00:15:00,
2013-05-09 19:25:00,60.9,56.0,29.90,NNW,338,7.0,9.0,84,0.00,,,0.62,Wunderground v.1.15,2013-05-10 00:25:00,
2013-05-09 19:30:00,60.9,56.4,29.90,NNW,328,6.0,6.0,85,0.00,,,0.62,Wunderground v.1.15,2013-05-10 00:30:00,
2013-05-09 19:40:00,60.7,56.2,29.90,NW,311,6.0,11.0,85,0.00,,,0.62,Wunderground v.1.15,2013-05-10 00:40:00,
2013-05-09 19:45:00,60.7,56.2,29.90,NNW,336,8.0,11.0,85,0.00,,,0.62,Wunderground v.1.15,2013-05-10 00:45:00,
2013-05-09 19:55:00,60.5,56.3,29.91,North,355,7.0,9.0,86,0.00,,,0.62,Wunderground v.1.15,2013-05-10 00:55:00,
2013-05-09 20:05:00,60.4,56.2,29.91,North,360,6.0,9.0,86,0.00,,,0.62,Wunderground v.1.15,2013-05-10 01:05:00,
2013-05-09 20:15:00,60.2,56.0,29.91,North,360,5.0,5.0,86,0.00,,,0.62,Wunderground v.1.15,2013-05-10 01:15:00,
2013-05-09 20:20:00,60.0,55.8,29.91,North,10,6.0,6.0,86,0.00,,,0.62,Wunderground v.1.15,2013-05-10 01:20:00,
2013-05-09 20:30:00,59.7,55.5,29.91,North,5,6.0,6.0,86,0.00,,,0.62,Wunderground v.1.15,2013-05-10 01:30:00,
2013-05-09 20:35:00,59.7,55.5,29.92,NNW,336,6.0,7.0,86,0.00,,,0.62,Wunderground v.1.15,2013-05-10 01:35:00,
2013-05-09 20:45:00,59.5,55.6,29.92,NW,325,4.0,5.0,87,0.00,,,0.62,Wunderground v.1.15,2013-05-10 01:45:00,
2013-05-09 20:50:00,59.5,55.6,29.92,North,360,5.0,5.0,87,0.00,,,0.62,Wunderground v.1.15,2013-05-10 01:50:00,
2013-05-09 21:00:00,59.3,55.4,29.92,NNW,343,5.0,5.0,87,0.00,,,0.62,Wunderground v.1.15,2013-05-10 02:00:00,
2013-05-09 21:05:00,59.1,55.2,29.92,NW,321,5.0,7.0,87,0.00,,,0.62,Wunderground v.1.15,2013-05-10 02:05:00,
2013-05-09 21:15:00,59.0,55.1,29.92,NNW,348,6.0,6.0,87,0.00,,,0.62,Wunderground v.1.15,2013-05-10 02:15:00,
2013-05-09 21:20:00,59.0,55.1,29.92,North,360,5.0,6.0,87,0.00,,,0.62,Wunderground v.1.15,2013-05-10 02:20:00,
2013-05-09 21:25:00,59.0,55.1,29.92,NNW,339,5.0,9.0,87,0.00,,,0.62,Wunderground v.1.15,2013-05-10 02:25:00,
2013-05-09 21:35:00,59.0,55.1,29.93,North,355,6.0,9.0,87,0.00,,,0.62,Wunderground v.1.15,2013-05-10 02:35:00,
2013-05-09 21:40:00,59.0,55.1,29.93,NNW,331,6.0,6.0,87,0.00,,,0.62,Wunderground v.1.15,2013-05-10 02:40:00,
2013-05-09 21:50:00,59.0,55.1,29.93,NNE,28,6.0,6.0,87,0.00,,,0.62,Wunderground v.1.15,2013-05-10 02:50:00,
2013-05-09 21:55:00,58.9,55.0,29.93,NW,322,6.0,7.0,87,0.00,,,0.62,Wunderground v.1.15,2013-05-10 02:55:00,
2013-05-09 22:05:00,58.5,54.6,29.94,NW,315,6.0,9.0,87,0.00,,,0.62,Wunderground v.1.15,2013-05-10 03:05:00,
2013-05-09 22:15:00,58.3,54.8,29.94,NNW,340,7.0,7.0,88,0.00,,,0.62,Wunderground v.1.15,2013-05-10 03:15:00,
2013-05-09 22:20:00,58.2,54.7,29.95,NNW,345,6.0,7.0,88,0.00,,,0.62,Wunderground v.1.15,2013-05-10 03:20:00,
2013-05-09 22:30:00,58.2,54.7,29.95,North,355,6.0,6.0,88,0.00,,,0.62,Wunderground v.1.15,2013-05-10 03:30:00,
2013-05-09 22:40:00,58.2,54.7,29.95,NNE,12,6.0,6.0,88,0.00,,,0.62,Wunderground v.1.15,2013-05-10 03:40:00,
2013-05-09 22:45:00,58.2,54.7,29.95,NNW,344,6.0,6.0,88,0.00,,,0.62,Wunderground v.1.15,2013-05-10 03:45:00,
2013-05-09 22:55:00,58.1,54.6,29.95,North,360,7.0,10.0,88,0.00,,,0.62,Wunderground v.1.15,2013-05-10 03:55:00,
2013-05-09 23:05:00,58.1,54.6,29.95,NW,323,7.0,9.0,88,0.00,,,0.62,Wunderground v.1.15,2013-05-10 04:05:00,
2013-05-09 23:10:00,58.1,54.6,29.95,North,360,7.0,7.0,88,0.00,,,0.62,Wunderground v.1.15,2013-05-10 04:10:00,
2013-05-09 23:20:00,58.1,54.2,29.95,NW,314,11.0,17.0,87,0.00,,,0.62,Wunderground v.1.15,2013-05-10 04:20:00,
2013-05-09 23:25:00,58.1,54.2,29.95,NW,321,11.0,17.0,87,0.00,,,0.62,Wunderground v.1.15,2013-05-10 04:25:00,
2013-05-09 23:30:00,58.2,54.3,29.95,North,355,9.0,9.0,87,0.00,,,0.62,Wunderground v.1.15,2013-05-10 04:30:00,
2013-05-09 23:35:00,58.2,54.3,29.95,NNW,341,7.0,9.0,87,0.00,,,0.62,Wunderground v.1.15,2013-05-10 04:35:00,
2013-05-09 23:40:00,58.1,54.2,29.95,NE,39,7.0,8.0,87,0.00,,,0.62,Wunderground v.1.15,2013-05-10 04:40:00,
2013-05-09 23:50:00,57.8,53.6,29.95,North,5,9.0,12.0,86,0.00,,,0.62,Wunderground v.1.15,2013-05-10 04:50:00,
2013-05-09 23:55:00,57.7,53.5,29.95,NNE,32,10.0,12.0,86,0.00,,,0.62,Wunderground v.1.15,2013-05-10 04:55:00,